Precipitable_Water
0.47 0.47 0.44 0.38 0.41 0.45 0.41 0.36 0.39 0.41 0.40 0.37 0.35 0.39 0.41 0.43 0.45 0.42 0.37 0.45 0.38 0.29 0.25 0.25 0.27 0.23 0.23 0.24 0.20 0.22 0.21 0.22 0.21 0.18 0.20 0.19 0.20 0.21 0.22 0.25 0.24 0.23 0.21 0.22 0.22 0.19 0.16 0.32 0.33 0.22 0.32 0.41 0.47 0.52
0.43 0.41 0.41 0.39 0.37 0.45 0.42 0.39 0.43 0.41 0.36 0.34 0.37 0.40 0.41 0.43 0.45 0.46 0.36 0.48 0.49 0.36 0.27 0.33 0.32 0.33 0.30 0.29 0.25 0.25 0.24 0.24 0.24 0.22 0.22 0.24 0.21 0.23 0.23 0.19 0.32 0.22 0.28 0.23 0.25 0.23 0.29 0.34 0.34 0.44 0.50 0.46 0.51 0.52
0.43 0.42 0.41 0.39 0.39 0.40 0.42 0.37 0.41 0.37 0.33 0.34 0.38 0.40 0.41 0.43 0.47 0.47 0.42 0.47 0.45 0.36 0.29 0.27 0.22 0.29 0.34 0.33 0.36 0.22 0.24 0.27 0.29 0.37 0.31 0.27 0.22 0.25 0.21 0.22 0.27 0.31 0.37 0.30 0.31 0.36 0.38 0.39 0.43 0.44 0.49 0.48 0.55 0.55
0.48 0.44 0.41 0.42 0.43 0.43 0.40 0.36 0.34 0.34 0.35 0.36 0.39 0.40 0.42 0.43 0.45 0.49 0.43 0.48 0.45 0.37 0.22 0.20 0.30 0.25 0.31 0.31 0.32 0.33 0.30 0.34 0.36 0.36 0.28 0.25 0.22 0.30 0.25 0.27 0.27 0.34 0.36 0.32 0.33 0.39 0.42 0.44 0.46 0.49 0.50 0.54 0.53 0.54
0.49 0.48 0.47 0.48 0.47 0.44 0.41 0.36 0.34 0.36 0.36 0.38 0.40 0.41 0.42 0.43 0.45 0.49 0.48 0.50 0.50 0.36 0.22 0.20 0.26 0.25 0.29 0.30 0.28 0.32 0.31 0.31 0.31 0.29 0.27 0.25 0.28 0.31 0.32 0.32 0.29 0.36 0.33 0.29 0.28 0.40 0.41 0.42 0.49 0.53 0.53 0.51 0.52 0.51
0.48 0.47 0.47 0.48 0.49 0.48 0.44 0.39 0.37 0.36 0.40 0.41 0.41 0.43 0.41 0.44 0.45 0.43 0.34 0.46 0.50 0.48 0.28 0.17 0.24 0.22 0.27 0.29 0.28 0.30 0.32 0.33 0.33 0.30 0.28 0.31 0.35 0.32 0.26 0.25 0.34 0.38 0.41 0.41 0.37 0.44 0.46 0.48 0.49 0.52 0.50 0.51 0.52 0.51
0.42 0.42 0.46 0.47 0.49 0.48 0.46 0.43 0.39 0.40 0.42 0.42 0.44 0.42 0.41 0.42 0.46 0.36 0.33 0.44 0.53 0.49 0.28 0.20 0.17 0.26 0.34 0.37 0.35 0.30 0.34 0.33 0.32 0.32 0.31 0.32 0.33 0.35 0.28 0.23 0.33 0.38 0.40 0.41 0.41 0.42 0.39 0.42 0.40 0.48 0.49 0.49 0.50 0.49
0.40 0.40 0.41 0.43 0.47 0.49 0.46 0.44 0.41 0.42 0.43 0.44 0.44 0.41 0.41 0.44 0.49 0.41 0.44 0.54 0.54 0.41 0.33 0.20 0.17 0.23 0.36 0.31 0.30 0.39 0.32 0.35 0.36 0.35 0.36 0.33 0.35 0.34 0.25 0.32 0.36 0.38 0.38 0.38 0.37 0.39 0.39 0.42 0.44 0.44 0.45 0.45 0.43 0.42
0.40 0.38 0.40 0.43 0.43 0.44 0.43 0.45 0.45 0.47 0.45 0.44 0.41 0.40 0.46 0.43 0.37 0.41 0.49 0.52 0.55 0.41 0.23 0.21 0.17 0.19 0.38 0.36 0.39 0.40 0.41 0.30 0.40 0.32 0.33 0.35 0.30 0.26 0.31 0.33 0.35 0.36 0.35 0.35 0.37 0.38 0.38 0.38 0.39 0.40 0.40 0.40 0.38 0.38
0.39 0.38 0.39 0.41 0.42 0.41 0.40 0.43 0.47 0.48 0.43 0.40 0.40 0.36 0.30 0.39 0.51 0.52 0.45 0.36 0.36 0.36 0.32 0.21 0.25 0.20 0.29 0.34 0.30 0.31 0.37 0.32 0.26 0.32 0.39 0.30 0.28 0.35 0.37 0.38 0.37 0.37 0.37 0.36 0.33 0.32 0.34 0.33 0.35 0.36 0.37 0.38 0.38 0.37
0.39 0.40 0.40 0.40 0.40 0.38 0.40 0.44 0.46 0.46 0.45 0.41 0.34 0.32 0.43 0.54 0.46 0.37 0.30 0.28 0.28 0.23 0.26 0.23 0.25 0.22 0.30 0.24 0.25 0.34 0.31 0.33 0.25 0.29 0.30 0.28 0.25 0.32 0.37 0.38 0.38 0.37 0.35 0.34 0.35 0.35 0.35 0.35 0.34 0.34 0.34 0.36 0.37 0.37
0.40 0.39 0.39 0.39 0.40 0.41 0.41 0.44 0.47 0.45 0.38 0.38 0.44 0.49 0.48 0.39 0.33 0.26 0.24 0.26 0.23 0.19 0.24 0.23 0.26 0.29 0.30 0.34 0.30 0.34 0.29 0.30 0.22 0.35 0.29 0.23 0.28 0.35 0.36 0.36 0.37 0.37 0.34 0.34 0.33 0.33 0.33 0.34 0.34 0.33 0.33 0.33 0.34 0.36
0.38 0.37 0.37 0.38 0.42 0.43 0.46 0.47 0.45 0.41 0.45 0.48 0.42 0.35 0.33 0.31 0.23 0.19 0.16 0.19 0.19 0.21 0.23 0.26 0.25 0.32 0.34 0.36 0.32 0.31 0.26 0.24 0.32 0.25 0.23 0.25 0.30 0.32 0.32 0.32 0.32 0.32 0.32 0.31 0.29 0.30 0.30 0.30 0.32 0.31 0.31 0.32 0.33 0.33
0.35 0.37 0.39 0.40 0.43 0.44 0.45 0.43 0.40 0.40 0.44 0.35 0.31 0.23 0.24 0.21 0.21 0.21 0.20 0.20 0.23 0.23 0.27 0.30 0.30 0.30 0.34 0.30 0.32 0.26 0.30 0.30 0.22 0.19 0.20 0.26 0.29 0.31 0.32 0.32 0.29 0.28 0.28 0.26 0.26 0.27 0.27 0.27 0.28 0.29 0.29 0.30 0.31 0.31
0.37 0.38 0.41 0.42 0.43 0.43 0.41 0.39 0.41 0.49 0.40 0.32 0.31 0.21 0.21 0.26 0.27 0.28 0.29 0.27 0.29 0.28 0.28 0.30 0.33 0.34 0.32 0.30 0.30 0.28 0.23 0.20 0.21 0.20 0.25 0.29 0.29 0.29 0.29 0.29 0.29 0.28 0.28 0.27 0.26 0.26 0.26 0.26 0.26 0.26 0.27 0.28 0.29 0.29
0.39 0.39 0.37 0.39 0.39 0.39 0.39 0.45 0.49 0.46 0.39 0.34 0.29 0.26 0.28 0.25 0.26 0.30 0.31 0.30 0.33 0.30 0.34 0.33 0.30 0.28 0.26 0.27 0.24 0.22 0.20 0.18 0.21 0.25 0.28 0.29 0.28 0.28 0.28 0.28 0.28 0.27 0.27 0.26 0.26 0.26 0.25 0.25 0.24 0.25 0.26 0.26 0.26 0.27
0.47 0.41 0.45 0.45 0.47 0.49 0.51 0.45 0.42 0.35 0.32 0.29 0.27 0.30 0.29 0.29 0.28 0.30 0.33 0.33 0.37 0.32 0.27 0.29 0.25 0.24 0.30 0.24 0.22 0.24 0.21 0.23 0.25 0.26 0.28 0.29 0.29 0.29 0.29 0.29 0.29 0.28 0.27 0.26 0.25 0.25 0.24 0.24 0.24 0.23 0.23 0.24 0.25 0.26
0.46 0.49 0.54 0.52 0.52 0.50 0.45 0.44 0.37 0.32 0.27 0.28 0.26 0.27 0.30 0.31 0.31 0.32 0.34 0.36 0.34 0.33 0.32 0.27 0.30 0.25 0.22 0.20 0.21 0.24 0.26 0.27 0.29 0.28 0.29 0.29 0.30 0.29 0.29 0.28 0.28 0.27 0.26 0.26 0.25 0.25 0.24 0.23 0.22 0.22 0.22 0.22 0.23 0.24
0.57 0.59 0.59 0.56 0.51 0.44 0.37 0.37 0.38 0.27 0.27 0.28 0.29 0.31 0.31 0.31 0.33 0.34 0.34 0.36 0.37 0.38 0.35 0.31 0.26 0.23 0.23 0.25 0.25 0.26 0.27 0.27 0.27 0.27 0.28 0.29 0.29 0.28 0.28 0.28 0.27 0.27 0.26 0.26 0.26 0.25 0.24 0.24 0.24 0.24 0.24 0.24 0.23 0.23
0.59 0.58 0.56 0.54 0.49 0.39 0.34 0.32 0.34 0.28 0.25 0.27 0.30 0.29 0.29 0.29 0.31 0.32 0.33 0.33 0.34 0.32 0.29 0.26 0.25 0.26 0.26 0.27 0.28 0.28 0.28 0.28 0.27 0.25 0.25 0.26 0.28 0.27 0.27 0.27 0.27 0.27 0.26 0.26 0.25 0.25 0.24 0.23 0.23 0.23 0.23 0.23 0.23 0.23
0.54 0.54 0.55 0.51 0.40 0.36 0.32 0.30 0.28 0.29 0.28 0.26 0.29 0.28 0.28 0.30 0.29 0.29 0.30 0.32 0.29 0.26 0.25 0.27 0.27 0.29 0.30 0.29 0.29 0.29 0.28 0.28 0.26 0.25 0.24 0.24 0.26 0.26 0.26 0.27 0.27 0.26 0.26 0.25 0.24 0.23 0.23 0.22 0.22 0.22 0.22 0.22 0.23 0.23
0.49 0.50 0.44 0.42 0.34 0.32 0.30 0.31 0.28 0.29 0.27 0.27 0.27 0.27 0.25 0.25 0.25 0.26 0.29 0.27 0.25 0.25 0.27 0.26 0.27 0.27 0.27 0.26 0.27 0.27 0.27 0.27 0.26 0.26 0.25 0.25 0.24 0.24 0.24 0.25 0.25 0.25 0.25 0.25 0.24 0.23 0.23 0.23 0.23 0.22 0.22 0.22 0.22 0.22
0.50 0.47 0.41 0.38 0.29 0.27 0.26 0.34 0.26 0.27 0.23 0.24 0.25 0.23 0.23 0.23 0.24 0.26 0.23 0.24 0.24 0.27 0.27 0.27 0.27 0.27 0.26 0.26 0.26 0.26 0.26 0.26 0.25 0.25 0.26 0.25 0.25 0.25 0.25 0.25 0.25 0.24 0.23 0.24 0.25 0.24 0.23 0.24 0.24 0.23 0.23 0.22 0.22 0.22
0.45 0.37 0.31 0.29 0.28 0.24 0.29 0.26 0.27 0.25 0.24 0.22 0.21 0.20 0.21 0.22 0.23 0.21 0.19 0.21 0.23 0.25 0.25 0.25 0.25 0.24 0.25 0.25 0.25 0.26 0.27 0.27 0.26 0.26 0.26 0.25 0.24 0.25 0.25 0.25 0.24 0.24 0.23 0.23 0.23 0.23 0.23 0.23 0.23 0.23 0.23 0.22 0.22 0.22
0.33 0.28 0.28 0.24 0.26 0.24 0.22 0.22 0.22 0.22 0.20 0.21 0.20 0.20 0.21 0.22 0.19 0.18 0.18 0.19 0.21 0.22 0.24 0.25 0.26 0.25 0.24 0.24 0.25 0.25 0.26 0.25 0.23 0.22 0.23 0.24 0.23 0.23 0.22 0.22 0.23 0.23 0.23 0.22 0.21 0.21 0.21 0.22 0.22 0.21 0.22 0.22 0.22 0.22
0.24 0.25 0.23 0.22 0.23 0.22 0.22 0.20 0.20 0.20 0.21 0.20 0.20 0.22 0.21 0.20 0.18 0.17 0.19 0.22 0.23 0.24 0.24 0.24 0.23 0.22 0.21 0.22 0.21 0.21 0.21 0.23 0.22 0.20 0.21 0.22 0.21 0.20 0.20 0.19 0.19 0.20 0.23 0.22 0.21 0.20 0.20 0.20 0.20 0.20 0.20 0.20 0.20 0.20
0.22 0.22 0.24 0.26 0.25 0.23 0.22 0.22 0.23 0.21 0.20 0.20 0.21 0.21 0.21 0.19 0.18 0.19 0.20 0.20 0.19 0.20 0.21 0.21 0.21 0.20 0.19 0.19 0.20 0.20 0.21 0.21 0.20 0.19 0.20 0.20 0.20 0.20 0.19 0.18 0.17 0.19 0.21 0.21 0.21 0.20 0.19 0.19 0.19 0.18 0.18 0.18 0.19 0.18
0.23 0.25 0.22 0.23 0.23 0.24 0.22 0.21 0.21 0.21 0.22 0.23 0.21 0.17 0.14 0.11 0.11 0.14 0.16 0.18 0.19 0.19 0.19 0.19 0.19 0.18 0.17 0.17 0.17 0.17 0.18 0.18 0.18 0.18 0.18 0.18 0.18 0.18 0.18 0.19 0.19 0.20 0.20 0.20 0.20 0.20 0.19 0.19 0.18 0.18 0.17 0.17 0.16 0.17
0.22 0.24 0.23 0.21 0.21 0.20 0.20 0.19 0.17 0.17 0.17 0.15 0.13 0.12 0.11 0.12 0.13 0.15 0.16 0.17 0.17 0.16 0.15 0.14 0.14 0.15 0.15 0.15 0.16 0.16 0.16 0.15 0.14 0.13 0.13 0.13 0.13 0.15 0.17 0.17 0.17 0.18 0.18 0.19 0.19 0.19 0.19 0.18 0.18 0.18 0.17 0.17 0.17 0.18
0.17 0.19 0.16 0.15 0.13 0.12 0.13 0.13 0.13 0.15 0.14 0.13 0.12 0.11 0.11 0.12 0.14 0.15 0.15 0.15 0.14 0.13 0.13 0.13 0.13 0.13 0.13 0.13 0.13 0.13 0.14 0.14 0.14 0.13 0.12 0.12 0.13 0.15 0.15 0.16 0.16 0.16 0.17 0.17 0.17 0.17 0.18 0.17 0.17 0.17 0.16 0.16 0.16 0.15
0.16 0.15 0.13 0.11 0.10 0.11 0.12 0.13 0.12 0.12 0.11 0.11 0.11 0.10 0.10 0.11 0.12 0.13 0.12 0.12 0.12 0.12 0.12 0.11 0.12 0.12 0.12 0.12 0.12 0.12 0.12 0.13 0.14 0.14 0.13 0.13 0.13 0.13 0.13 0.13 0.14 0.14 0.15 0.15 0.15 0.15 0.15 0.14 0.14 0.14 0.14 0.13 0.13 0.13
0.13 0.11 0.10 0.09 0.09 0.11 0.12 0.11 0.11 0.10 0.10 0.10 0.09 0.10 0.10 0.09 0.08 0.10 0.12 0.11 0.11 0.10 0.10 0.10 0.09 0.09 0.09 0.09 0.09 0.09 0.09 0.09 0.09 0.10 0.09 0.10 0.10 0.10 0.11 0.11 0.11 0.11 0.11 0.11 0.11 0.11 0.11 0.10 0.10 0.10 0.10 0.10 0.10 0.10
0.11 0.10 0.10 0.09 0.09 0.09 0.10 0.10 0.10 0.09 0.09 0.09 0.09 0.09 0.09 0.08 0.07 0.09 0.11 0.11 0.10 0.09 0.09 0.09 0.09 0.09 0.09 0.09 0.09 0.09 0.09 0.09 0.09 0.09 0.09 0.09 0.09 0.10 0.10 0.10 0.10 0.10 0.10 0.09 0.10 0.10 0.09 0.09 0.09 0.08 0.08 0.08 0.08 0.08
Wind_Speed
37 36 34 34 33 32 29 27 28 26 23 21 20 18 17 16 15 14 14 14 13 13 13 12 9 9 7 7 6 7 8 5 5 5 4 5 2 3 5 9 7 8 6 4 4 6 7 6 1 3 2 4 8 8
41 40 39 36 35 33 30 27 26 25 24 22 21 19 17 16 15 15 14 14 14 13 12 11 12 11 10 10 8 7 6 7 4 3 4 2 3 4 7 5 8 9 8 6 4 3 2 3 4 3 3 9 4 5
42 41 40 38 37 36 33 30 28 26 25 24 22 20 18 16 15 14 14 13 13 13 14 13 10 10 11 13 12 9 7 6 5 4 3 3 3 3 5 5 8 8 8 7 6 4 4 5 4 4 6 6 3 4
44 42 41 40 38 37 34 32 32 30 27 25 23 21 18 17 16 15 14 14 12 12 12 13 11 11 10 12 13 14 11 7 7 5 5 5 4 3 5 8 7 4 7 11 6 9 6 6 4 3 5 5 4 4
46 44 42 41 39 38 35 33 31 29 28 26 23 21 19 18 16 15 14 14 14 12 11 13 15 15 12 12 14 14 13 11 8 6 6 6 5 5 5 5 4 7 7 8 7 15 9 8 12 8 7 6 6 5
46 45 44 42 41 38 36 33 32 30 28 26 23 21 19 17 16 13 14 16 16 13 11 10 11 13 10 8 10 11 11 10 9 7 6 6 6 6 5 4 5 6 6 5 7 7 9 7 8 8 7 8 8 6
45 44 43 43 42 40 37 35 34 31 29 26 24 22 20 19 16 13 10 9 9 11 8 9 8 5 4 3 5 9 11 8 8 8 8 8 8 7 7 6 6 7 7 6 9 9 8 9 6 7 7 7 9 8
41 40 41 42 41 41 38 36 35 33 30 27 24 21 19 18 17 16 15 9 7 7 7 7 6 4 4 4 4 6 7 8 8 7 7 7 7 6 6 4 6 7 9 8 11 8 8 8 9 9 10 10 11 11
37 35 35 35 37 38 37 37 36 34 31 27 24 21 18 17 15 14 13 13 11 9 7 6 5 4 5 3 3 4 5 6 6 7 6 6 6 6 5 5 6 8 9 10 10 8 9 9 10 11 11 12 12 12
34 33 33 33 32 32 33 35 35 34 31 27 23 20 17 16 15 13 11 10 10 11 10 10 10 9 6 4 3 3 5 5 5 6 5 6 5 4 5 5 6 7 9 10 9 9 10 10 10 11 11 11 12 11
31 30 30 30 30 30 32 33 34 33 30 27 22 18 16 18 14 14 10 10 9 8 10 11 14 12 10 8 6 4 3 3 4 3 5 5 5 4 5 5 7 7 8 8 8 9 9 10 11 11 12 12 12 12
30 29 29 28 28 29 32 34 34 32 28 26 19 18 18 15 14 14 10 8 9 9 9 10 11 11 9 8 7 5 5 4 4 3 4 4 3 3 5 5 6 7 8 9 9 10 11 11 11 12 13 13 13 11
29 29 28 28 29 30 32 34 34 31 28 24 20 18 16 16 14 13 12 9 9 8 10 12 10 8 7 8 7 6 6 6 5 5 5 4 3 4 5 6 7 8 9 10 11 12 12 12 13 14 14 14 13 12
28 28 29 30 31 32 33 33 33 33 28 19 19 19 17 14 13 12 11 11 11 11 13 11 9 9 8 8 7 6 6 6 6 6 5 4 4 6 7 8 9 10 10 12 13 13 14 14 14 15 15 15 14 13
28 29 31 32 33 32 32 32 33 31 25 15 18 17 17 13 9 8 9 10 9 15 16 12 8 9 7 7 6 5 5 5 5 5 5 5 7 8 9 10 11 12 14 15 16 17 17 17 17 17 17 17 16 15
27 28 30 32 32 32 32 33 31 28 22 13 15 13 13 13 10 8 8 8 10 16 16 12 10 8 8 6 7 7 7 7 5 6 7 8 9 10 11 13 14 15 17 17 18 18 19 20 20 20 19 18 17 15
26 25 30 32 33 33 33 28 26 23 19 12 13 13 11 10 10 9 9 9 11 16 15 12 10 10 6 6 7 7 8 7 8 8 10 11 12 13 15 16 17 18 17 18 19 20 21 21 20 19 19 18 17 15
22 25 29 35 37 34 28 25 24 19 15 13 13 11 10 9 8 8 9 9 13 14 14 12 11 11 9 9 9 9 9 10 11 12 13 14 15 16 17 19 18 19 20 21 22 23 23 23 23 22 22 21 19 17
28 31 36 40 36 31 24 22 20 15 12 13 12 12 10 9 7 8 9 10 12 12 12 11 10 10 10 10 10 10 11 12 13 14 16 16 17 18 18 18 19 21 22 23 23 23 22 23 23 23 23 22 21 20
34 34 34 33 31 23 18 18 15 13 12 11 11 11 10 9 8 7 7 9 11 12 11 11 11 11 10 10 11 12 13 14 15 16 16 17 17 17 18 20 21 21 21 20 19 18 18 19 20 19 18 16 16 16
31 28 27 25 21 17 14 16 12 12 12 11 12 11 10 9 7 7 8 9 10 10 10 10 10 11 11 12 13 13 14 15 16 16 17 18 18 18 19 19 19 18 16 15 15 15 15 15 16 14 11 7 6 9
26 25 22 19 17 13 12 12 12 11 11 11 11 10 9 9 8 8 8 7 8 10 11 11 11 11 11 12 14 15 16 16 16 16 17 18 18 18 18 17 14 13 12 11 11 11 11 12 11 11 9 5 2 3
22 19 16 15 13 11 11 11 10 10 11 11 10 9 8 8 9 9 8 8 9 10 10 11 11 12 12 13 14 14 15 15 16 16 17 16 15 14 12 10 10 9 9 9 9 9 9 9 9 8 7 6 3 1
16 14 13 13 10 10 10 9 9 10 9 9 8 7 7 8 8 8 8 9 10 10 10 11 12 12 12 13 13 14 15 14 12 11 10 9 8 8 8 8 8 8 9 9 10 10 9 9 8 7 6 4 3 1
12 9 10 9 9 9 8 8 8 8 8 8 7 7 7 7 7 7 9 9 10 9 10 10 11 12 12 12 10 9 9 9 9 9 10 10 10 10 10 10 11 11 12 12 11 11 11 10 9 8 7 6 6 5
9 7 9 10 9 9 9 8 8 8 8 7 7 7 7 6 6 6 7 8 9 9 9 8 7 7 8 9 10 11 11 12 12 12 13 13 14 14 14 15 15 15 16 15 14 14 14 13 12 12 11 10 9 9
8 6 7 8 8 8 7 7 7 6 6 6 6 6 5 4 5 5 4 5 6 6 7 7 8 9 9 10 10 11 12 12 13 13 14 15 15 16 16 17 17 18 18 18 18 17 17 16 15 15 14 14 14 14
7 7 9 8 8 6 7 6 6 5 5 5 5 4 3 4 4 4 4 4 4 5 6 8 9 10 11 12 13 13 14 14 15 15 16 16 16 17 18 18 18 19 18 18 18 18 18 17 17 16 16 15 15 15
8 9 10 9 8 7 6 6 5 5 4 5 3 3 2 3 3 3 4 4 6 7 8 9 10 11 11 12 13 14 15 16 16 16 16 16 17 17 17 17 17 17 17 17 16 16 16 16 16 16 15 15 15 15
9 9 9 8 7 5 4 4 5 4 3 2 2 2 2 0 2 3 5 7 8 9 10 10 11 11 12 12 12 13 13 14 15 15 15 15 16 17 16 16 16 16 16 15 15 15 14 14 14 14 14 14 14 15
9 8 8 6 6 6 6 5 5 4 3 3 3 2 1 3 4 6 7 7 7 8 9 10 11 11 12 12 13 13 13 14 14 14 14 15 15 15 15 15 14 14 14 13 13 13 12 12 12 13 13 13 14 14
7 7 8 7 7 6 5 4 4 3 1 1 1 2 4 6 6 7 7 8 9 9 9 10 10 11 11 12 12 13 14 14 14 14 14 13 13 13 13 12 12 12 12 11 11 11 10 10 10 10 11 11 12 12
7 8 8 6 5 5 4 3 0 1 1 2 3 4 6 6 7 7 7 8 8 8 9 10 10 11 12 13 13 14 13 13 13 12 12 11 11 11 11 11 11 10 10 10 9 9 9 9 9 10 10 10 10 11
Wind_Direction
226 227 228 228 229 231 233 237 237 239 243 249 249 251 259 268 266 275 289 288 301 303 300 291 289 291 290 285 276 302 320 325 320 352 345 346 335 356 350 343 346 358 349 330 284 269 269 318 10 180 256 299 314 338
229 229 230 231 231 230 231 235 232 235 239 245 242 247 255 263 263 269 286 287 289 293 290 294 285 278 268 265 275 284 283 305 291 312 320 313 328 337 347 12 18 18 1 347 345 285 285 283 265 270 290 323 286 332
228 228 229 230 228 227 230 233 232 235 241 239 238 243 250 257 257 267 280 285 288 287 289 285 275 279 271 261 258 264 274 262 263 270 297 295 305 337 349 352 349 358 10 24 13 42 338 298 268 258 314 322 334 347
228 228 228 228 227 226 229 233 235 236 236 233 235 239 245 250 255 264 276 279 280 284 285 285 282 279 275 267 254 247 254 256 255 258 271 268 281 305 317 322 326 4 6 5 18 9 5 51 22 1 10 29 27 10
227 227 226 225 226 227 229 231 230 228 226 229 233 236 240 246 252 262 270 273 270 273 280 286 289 289 279 269 245 237 237 238 233 244 248 257 273 292 305 323 344 350 350 23 22 24 59 46 45 57 60 44 29 12
225 225 225 225 225 225 226 226 225 222 225 226 229 231 235 238 245 258 275 272 262 263 276 284 290 290 284 255 226 221 219 211 220 235 247 253 263 286 300 311 342 348 354 6 9 1 26 39 37 40 40 25 10 359
223 223 224 223 223 223 223 223 222 221 221 223 224 228 232 234 238 247 267 275 264 240 264 285 292 281 280 232 210 202 198 209 225 240 246 253 261 275 284 290 326 338 334 344 345 344 339 360 349 346 343 337 342 347
217 219 220 220 221 220 221 222 217 217 217 218 220 224 227 228 234 245 244 261 242 235 253 274 270 280 186 172 167 177 195 217 230 242 249 254 262 254 267 298 320 329 324 320 330 326 323 323 323 325 326 319 320 323
210 212 212 213 215 215 217 215 212 211 210 212 215 216 220 224 230 233 237 239 235 242 245 250 226 198 171 177 187 208 215 225 227 234 244 237 245 246 274 292 312 319 326 322 323 323 330 332 329 328 327 325 322 322
204 206 206 206 206 207 208 206 205 204 204 204 204 211 219 219 213 210 225 232 231 236 245 237 212 209 198 199 206 241 219 221 208 225 230 243 248 254 275 288 301 314 324 329 327 330 330 333 334 335 335 331 329 327
195 195 197 198 199 201 198 195 194 192 192 195 200 206 206 192 204 215 225 220 226 240 240 222 211 214 220 225 239 223 228 217 217 217 245 242 250 250 282 295 304 309 318 325 325 322 321 321 323 326 328 330 330 330
187 188 188 189 191 190 188 187 186 186 188 188 189 186 186 199 206 209 218 223 225 233 216 198 204 208 218 218 217 215 220 219 229 252 262 254 251 272 293 307 310 316 321 323 325 324 322 320 319 318 321 322 324 322
185 186 187 186 184 181 181 179 180 181 177 181 187 189 195 201 204 209 207 216 216 217 198 192 197 196 202 204 212 219 225 233 246 254 265 274 250 280 290 301 311 317 320 320 321 319 318 317 316 316 314 315 314 313
181 182 181 179 176 174 174 176 177 176 177 184 190 186 198 200 210 213 218 221 225 206 184 182 187 198 200 200 213 223 232 244 250 254 261 267 278 291 297 301 306 311 314 317 319 317 315 314 314 313 312 310 307 305
169 170 170 171 171 172 173 175 175 175 180 192 189 198 201 203 204 215 219 216 223 199 190 191 193 197 202 212 224 223 228 242 257 264 263 273 290 296 299 303 305 307 308 308 307 307 307 305 304 304 305 305 301 297
163 166 170 171 171 171 170 169 175 179 185 193 193 191 196 198 210 220 216 213 209 192 192 197 201 209 218 223 223 233 242 251 263 270 274 280 287 294 297 300 301 303 305 307 308 305 303 302 299 295 295 297 295 289
166 169 169 171 169 168 169 170 174 180 188 192 194 196 199 206 214 224 219 213 198 191 197 202 206 215 216 227 235 246 247 257 266 277 285 289 291 292 296 298 299 300 300 303 304 305 305 304 301 297 294 292 288 284
169 172 171 169 167 164 168 172 174 179 185 189 190 196 202 208 213 215 213 211 201 201 207 213 217 223 231 239 250 254 260 267 275 285 290 291 291 293 294 297 298 299 300 301 302 303 302 301 298 293 287 282 278 274
138 142 150 157 160 160 163 169 178 180 185 189 194 198 200 206 210 211 214 207 198 203 207 218 225 233 240 252 256 260 267 275 282 288 291 293 293 295 296 297 299 300 302 303 303 304 304 304 302 296 288 278 269 262
139 138 141 145 155 159 164 174 175 180 187 191 189 192 197 198 208 208 199 202 204 211 218 228 235 242 248 254 260 267 274 281 285 289 290 295 298 298 299 300 301 303 304 305 307 309 311 314 317 311 302 283 266 252
144 145 150 152 157 160 167 175 181 186 185 189 187 194 198 201 209 207 210 216 214 222 227 235 240 249 255 262 268 273 281 286 289 289 290 292 297 300 302 304 306 307 307 308 312 317 321 327 333 335 336 321 269 239
148 149 151 158 163 167 168 175 177 181 187 188 191 195 202 215 223 226 227 227 227 232 237 243 247 255 261 269 276 281 285 287 289 291 294 296 297 299 302 304 305 310 313 315 318 324 331 338 346 358 3 3 342 233
147 151 154 157 158 162 172 180 181 181 182 189 198 210 222 226 230 230 233 235 236 243 247 249 255 263 268 274 280 286 288 290 293 295 296 297 299 301 303 305 308 312 317 322 325 328 332 338 346 355 3 15 31 75
146 155 162 168 167 171 173 177 179 183 191 202 211 216 224 226 230 235 237 242 247 253 253 258 262 269 274 280 284 288 290 291 294 300 306 307 309 311 312 314 316 316 315 314 316 318 321 324 328 332 335 341 343 332
149 151 162 168 175 174 179 187 193 196 200 205 207 218 226 226 235 243 248 249 252 257 262 267 273 276 276 277 281 286 291 290 293 297 302 303 300 300 302 305 306 306 306 305 305 306 307 307 307 305 302 296 288 278
162 179 178 186 193 190 195 193 199 200 205 216 223 224 230 236 245 251 255 251 254 259 262 265 269 276 281 283 282 286 288 289 289 292 296 296 295 294 294 295 296 298 299 296 295 294 293 292 291 288 286 282 276 271
161 172 176 178 182 178 183 188 190 194 198 204 206 210 222 238 243 245 238 250 251 257 265 272 275 279 282 287 291 294 294 293 292 291 293 295 296 295 295 294 294 295 295 291 288 287 286 285 283 281 279 277 274 271
152 154 158 160 155 160 164 169 177 184 189 188 181 190 197 214 245 249 251 255 260 273 283 287 289 288 288 289 291 292 293 294 293 293 293 296 298 298 298 296 295 295 294 293 290 286 284 282 280 278 276 274 272 270
135 140 139 136 139 139 142 152 159 162 167 169 177 204 232 262 248 251 259 273 282 292 296 297 300 298 297 296 297 297 297 297 295 296 296 296 296 299 301 299 298 298 297 295 293 290 287 283 280 278 276 275 273 271
147 145 140 137 136 135 150 156 154 157 160 169 171 156 136 151 310 296 290 293 297 299 300 302 302 301 301 302 303 306 307 306 304 300 297 298 298 300 301 302 302 301 299 296 294 292 290 287 283 281 278 276 274 273
150 146 140 136 135 135 135 130 130 132 131 116 111 113 344 316 315 320 316 313 312 310 310 311 312 311 308 307 306 306 308 310 310 308 304 302 301 302 303 303 303 303 301 301 300 297 293 290 287 284 281 279 278 275
162 163 159 151 155 155 139 128 126 123 109 79 343 333 332 329 323 316 319 319 319 318 318 318 318 318 317 316 315 313 311 310 309 310 308 305 304 304 305 306 307 309 308 306 303 302 301 299 297 295 291 288 285 282
170 167 160 160 168 181 183 163 270 250 311 314 317 319 323 326 325 322 324 326 325 324 323 322 322 322 321 320 319 317 315 314 313 313 313 313 312 311 309 309 310 311 313 313 311 307 306 304 303 302 300 297 294 291